Terminal Aerodrome Forecast
Issued by NWS

Home | Current Version | Previous Version | Text Only | Print | Product List | Glossary On
Versions: 1 2 3 4 5 6 7 8 9 10 11 12 13 14 15 16 17 18 19 20 21 22 23 24 25 26 27 28 29 30 31 32 33 34 35 36 37 38 39
000
FTAK31 PAFA 281138
TAFAFA
TAF
PAFA 281138Z 2812/2918 19004KT P6SM SCT050 BKN120
     FM290300 VRB03KT P6SM SCT035 BKN050 OVC100
     FM290900 00000KT P6SM VCSH SCT035 OVC050
     FM291200 VRB04KT P6SM -SHRA BKN035 OVC050=

USA.gov is the U.S. government's official web portal to all federal, state and local government web resources and services.